User: anonymous   Login
Location: Bois de la Silve
(44.4667°N, 6.7833°E)
Time: 09:01:37
(UTC+00:00)
Language:

Okean 3 - Orbit

View from above orbital plane
View from above orbital plane
View from above satellite
View from above satellite

Ground track
Ground track

The orbit data is extracted from the following two-line orbital elements,

1 21397U 91039A   20265.89445601 +.00000162 +00000-0 +13022-4 0  9997
2 21397 082.5189 085.0238 0017175 202.4318 157.6153 14.92957982566656
Epoch (UTC): 21 September 2020 21:28:00
Eccentricity: 0.0017175
inclination: 82.5189°
perigee height: 577 km
apogee height: 600 km
right ascension of ascending node: 85.0238°
argument of perigee: 202.4318°
revolutions per day: 14.92957982
mean anomaly at epoch: 157.6153°
orbit number at epoch: 56665

The dashed part of the orbit path shows where the satellite is in the earth's shadow,  

DLR